Regional Weather Roundup
Issued by NWS

Home | Current Version | Previous Version | Graphics & Text | Print | Product List | Glossary On
Versions: 1 2 3 4 5 6 7 8 9 10 11 12 13 14 15 16 17 18 19 20 21 22 23 24 25 26 27
000
ASUS45 KBOU 252307
RWRCO

WEATHER ROUNDUP FOR COLORADO
NATIONAL WEATHER SERVICE DENVER/BOULDER CO
500 PM MDT SUN JUN 25 2017

NOTE: "FAIR" INDICATES FEW OR NO CLOUDS BELOW 12000 FEET WITH NO
SIGNIFICANT WEATHER AND/OR OBSTRUCTIONS TO VISIBILITY.

COZ001>005-013-030-031-260000-
...NORTHWEST COLORADO...

CITY           SKY/WX    TMP DP  RH WIND       PRES   REMARKS
CRAIG          FAIR      84  22  10 VRB3      30.28F
HAYDEN         FAIR      81  27  13 W12       30.30S
MEEKER         FAIR      84  20   9 MISG      30.27F
RABBIT EARS PA FAIR      61  32  33 NW5       30.59F
STEAMBOAT SPGS FAIR      78  32  18 W10G17    30.32S
WALDEN         FAIR      75  34  22 N18       30.42S
$$

COZ006>008-011-260000-
...WEST CENTRAL VALLEYS...

CITY           SKY/WX    TMP DP  RH WIND       PRES   REMARKS
GRAND JUNCTION FAIR      94  25   8 W9        30.09F
MONTROSE       FAIR      90  27  10 N12       30.17F
EAGLE          MOSUNNY   84  28  13 VRB5      30.25F
RIFLE          FAIR      92  23   8 N13G18    30.16F
DELTA          FAIR      97  18   5 W8G18     30.12F
NUCLA          NOT AVBL
$$

COZ017>023-064>068-260000-
...SOUTHWEST COLORADO...

CITY           SKY/WX    TMP DP  RH WIND       PRES   REMARKS
DURANGO        FAIR      88  19   8 NW20G31   30.21F
CORTEZ         FAIR      92  23   8 SW8G28    30.16F
PAGOSA SPRINGS FAIR      86  22  10 SW12G23   30.29F
TELLURIDE      FAIR      77  16  10 W7        30.46F
WOLF CREEK PAS FAIR      59  30  33 SW15G21   30.69F
$$

COZ009-010-012-014-032>034-037-058>063-260000-
...CENTRAL COLORADO...

CITY           SKY/WX    TMP DP  RH WIND       PRES   REMARKS
ASPEN          FAIR      80  22  11 NW16G25   30.33F
BUENA VISTA    FAIR      83  11   6 N17G28    30.30F
COPPER MTN     FAIR      64  19  17 NW21G30   30.68S
BERTHOUD PASS  PTSUNNY   52  37  58 MISG      30.70F
COTTONWOOD PAS FAIR      79   1   5 W6        30.48S
GUNNISON       FAIR      81  23  11 NW10      30.32F
KREMMLING      NOT AVBL
LEADVILLE      FAIR      71  11  10 NW16G25   30.49S
MONARCH PASS   FAIR      64  16  15 W26G37    30.76F
SALIDA         FAIR      85  38  18 SE14G29   30.33S
SUNLIGHT       FAIR      64  21  19 W3        30.62F
WILKERSON PASS PTSUNNY   54  43  66 E13G21    30.64S
$$

COZ069>075-260000-
...SAN LUIS VALLEY/SANGRE DE CRISTO MOUNTAINS...

CITY           SKY/WX    TMP DP  RH WIND       PRES   REMARKS
ALAMOSA        FAIR      75  27  17 SW10      30.28S
DEL NORTE      FAIR      75  42  30 SE8       30.31F
LA VETA PASS   FAIR      61  50  67 MISG      30.64S
SAGUACHE       FAIR      86  18   8 NW15G31   30.30F
$$

COZ035-036-038>040-260000-
...NORTHERN COLORADO FRONT RANGE...

CITY           SKY/WX    TMP DP  RH WIND       PRES   REMARKS
DENVER INTL AP FAIR      73  53  49 N10G18    30.30F
DMNS CITY PARK   N/A     73  50  44 NE14      30.30S
AURORA         MOSUNNY   74  51  45 NE6       30.30F
FRONT RANGE AP FAIR      73  54  49 N13G22    30.31S
ERIE MUNI ARPT FAIR      71  49  45 N6        30.29F
BOULDER MUN AP FAIR      70  50  49 CALM      30.30F
CENTENNIAL     FAIR      72  51  47 N12G17    30.31F
BROOMFIELD     PTSUNNY   72  48  43 VRB5      30.33S
FORT COLLINS   FAIR      74  51  44 E5        30.30F
LONGMONT       FAIR      75  51  42 CALM      30.31F
$$

COZ041-046-047-076>085-087-088-260000-
...PIKES PEAK/PALMER DIVIDE AND SOUTHERN FOOTHILLS...

CITY           SKY/WX    TMP DP  RH WIND       PRES   REMARKS
COLO. SPRINGS  PTSUNNY   69  55  60 E23G35    30.29F THUNDER
A. F. ACADEMY  CLOUDY    71  50  47 E10       30.31S
SCHRIEVER AFB  LGT RAIN  66  59  77 E14       30.30S
CHEYENNE MTN   PTSUNNY   69  52  53 E9G18     30.30R
ELLICOTT       LGT RAIN N/A N/A N/A SE20G25   30.28F
FALCON           N/A     73  51  45 SE14      30.35F
FORT CARSON    PTSUNNY   75  54  48 E15       30.27S
LIMON          LGT RAIN  66  57  72 E20       30.26F
MONUMENT HILL  CLOUDY    68  45  42 E10       30.37S
CANON CITY     PTSUNNY   82  54  36 NE15      30.20S
WALSENBURG     NOT AVBL
TRINIDAD       PTSUNNY   82  48  30 E10       30.21R
$$

COZ042>045-048>051-090-091-260000-
...NORTHEAST COLORADO...

CITY           SKY/WX    TMP DP  RH WIND       PRES   REMARKS
GREELEY ARPT   FAIR      72  53  51 NE6       30.29F
AKRON          FAIR      70  53  54 SE15G22   30.29F
BURLINGTON     CLOUDY    64  55  72 E16       30.29F
WRAY           CLOUDY    66  54  63 S12G20    30.29F
YUMA           MOCLDY    63  54  72 SE14      30.29F
STERLING       CLOUDY    70  54  56 SE7       30.26F
HOLYOKE        NOT AVBL
FORT MORGAN    PTSUNNY   72  52  49 E6        30.29F
$$

COZ086-089-092>099-260000-
...SOUTHEAST COLORADO...

CITY           SKY/WX    TMP DP  RH WIND       PRES   REMARKS
PUEBLO         FAIR      81  55  40 E25G35    30.15F
LA JUNTA       FAIR      77  59  53 E23G33    30.18F
LAMAR          PTSUNNY   72  61  68 E21G35    30.16F
SPRINGFIELD      N/A     71  58  63 E23       30.20R
$$




USA.gov is the U.S. government's official web portal to all federal, state and local government web resources and services.